Flag for Turkmenistan Weather past 2 weeks in Ashgabat, Turkmenistan

Now
88 °F

Clear.


Feels Like: 84 °F
Forecast: 87 / 107 °F
Wind: 10 mph from Northwest

Location: Ashgabat

Current Time: Aug 5, 2015 at 5:23:22 AM

Latest Report: Aug 5, 2015 at 5:00 AM


Visibility: N/A

Pressure: 29.74 "Hg

Humidity: 18%

Dew point: 39 °F

Location of AshgabatLocation

Historic Weather in Ashgabat — Graph

°F

Ashgabat temperature yesterday

Maximum temperature yesterday: 109 °F (at 5:30 PM)
Minimum temperature yesterday: 79 °F (at 6:00 AM)
Average temperature yesterday: 97 °F

Past Weeks' High & Low Weather Summary

 TemperatureHumidityPressure
High109 °F (Aug 4, 5:30 PM)64% (Jul 21, 5:30 AM)29.98 "Hg (Jul 21, 5:30 AM)
Low68 °F (Jul 21, 5:30 AM)7% (Jul 29, 2:30 PM)29.62 "Hg (Jul 27, 6:00 PM)
Average92 °F19%29.80 "Hg
* Reported Jul 21 4:00 AM — Aug 5 4:00 AM, Ashgabat, Weather by CustomWeather, © 2015

Note: Actual official high and low records may vary slightly from our data, if they occured in-between our weather recording intervals... More about our weather records

Advertising

Ashgabat weather history for previous 24 hours

 ConditionsComfort  
Time TempWeatherWind HumidityBarometerVisibility
4:00 AM
Wed, Aug 5
88 °FPassing clouds.10 mph18%29.74 "HgN/A
3:00 AM90 °FPassing clouds.10 mph17%29.74 "HgN/A
2:00 AM91 °FPassing clouds.10 mph15%29.74 "HgN/A
1:00 AM95 °FPassing clouds.13 mph13%29.74 "HgN/A
12:00 AM97 °FPassing clouds.10 mph13%29.74 "HgN/A
11:00 PM
Tue, Aug 4
93 °FPassing clouds.8 mph14%29.74 "HgN/A
10:00 PM97 °FPassing clouds.8 mph13%29.74 "Hg6 mi
9:00 PM99 °FPassing clouds.10 mph11%29.74 "HgN/A
8:00 PM102 °FPassing clouds.10 mph11%29.74 "HgN/A
7:30 PM104 °FPassing clouds.10 mph9%29.74 "HgN/A
7:00 PM106 °FPassing clouds.10 mph8%29.74 "HgN/A
6:30 PM108 °FSunny.6 mph8%29.74 "HgN/A
6:00 PM108 °FSunny.6 mph8%29.74 "HgN/A
5:30 PM109 °FSunny.3 mph7%29.74 "HgN/A
5:00 PM108 °FSunny.10 mph7%29.74 "HgN/A
4:30 PM108 °FSunny.10 mph8%29.74 "HgN/A
4:00 PM108 °FSunny.8 mph7%29.77 "HgN/A
3:30 PM108 °FSunny.10 mph9%29.77 "HgN/A
3:00 PM108 °FSunny.10 mph9%29.77 "HgN/A
2:30 PM106 °FSunny.13 mph10%29.80 "HgN/A
2:00 PM106 °FSunny.13 mph11%29.80 "HgN/A
1:30 PM104 °FSunny.15 mph12%29.80 "HgN/A
1:00 PM104 °FSunny.15 mph12%29.83 "HgN/A
12:30 PM102 °FSunny.13 mph11%29.83 "HgN/A
12:00 PM102 °FSunny.17 mph11%29.83 "HgN/A
11:30 AM100 °FSunny.15 mph13%29.83 "HgN/A
11:00 AM99 °FSunny.15 mph15%29.86 "HgN/A
10:00 AM97 °FSunny.15 mph18%29.86 "HgN/A
9:30 AM95 °FSunny.15 mph19%29.86 "HgN/A
9:00 AM95 °FSunny.10 mph18%29.86 "HgN/A
8:30 AM93 °FSunny.13 mph17%29.83 "HgN/A
8:00 AM91 °FSunny.13 mph17%29.83 "HgN/A
7:30 AM90 °FSunny.10 mph14%29.83 "HgN/A
7:00 AM88 °FClear.8 mph15%29.83 "HgN/A
6:30 AM84 °FClear.10 mph15%29.83 "HgN/A
6:00 AM79 °FClear.6 mph18%29.83 "HgN/A
5:30 AM82 °FClear.6 mph16%29.83 "HgN/A
5:00 AM88 °FClear.8 mph13%29.80 "HgN/A
Weather by CustomWeather, © 2015

See weather overviewHow to use our weather pages